﻿ProjectID	SampleID	SampleType	TaxonomyID	UniqCodeType	UniqCode	SampleName	ScientificName	CommonName	CollectionYear	CollectionMonth	CollectionDay	SamplingTimeStartEnd	SamplingTimeAMPM	SamplingDuration	WeatherStartEnd	CollectionRegion	CollectionCountry	CollectionArea	CollectionLatitudeFrom	CollectionLatitudeTo	CollectionLongitudeFrom	CollectionLongitudeTo	Sex	TissueOrgan	TissueLipid	TissueMoist	Weight	WeightUnit	Length	LengthUnit	LengthType	GrowthStage	Age	Disease	TemperatureStartEnd	WaterTemperatureStartEnd	pH	DO	EC	EC_temp	Salinity	SS	WaterDepthM	TransparencyM	WaterColor	SedimentTemperatureStartEnd	SedimentDepthM	SedimentAppearance	SedimentColor	SedimentSurfaceColor	SedimentOdor	SedimentImpurities	SedimentMoistureOnSiteAnalysis	IgnitionLossOnSiteAnalysis	SoilDepthM	FlowRate	MeanPM10	MeanTotalSuspendedParticles	HumidityStartEnd	WindDirectionStartEnd	WindSpeedMSStartEnd	AmountOfCollectedAirStartEnd	Remarks	RegisterDate	UpdateDate
PRA000101	SAA007139	ST009	157729			SP-5-O_2017	"Saccostrea mordax"	"Small rock oyster"	2017	8	4					Asia	Japan	"Gusuku, Nago City, Okinawa"	26.58727778		127.9801389			"Whole soft tissues"	2.1																																							2020/6/8	2020/6/8
PRA000101	SAA007140	ST009	157729			SP-7-O_2017	"Saccostrea mordax"	"Small rock oyster"	2017	8	4					Asia	Japan	"Onna Village, Okinawa"	26.50908333		127.8738333			"Whole soft tissues"	2.1																																							2020/6/8	2020/6/8
PRA000101	SAA007141	ST009	157729			SP-8-O_2017	"Saccostrea mordax"	"Small rock oyster"	2017	8	4					Asia	Japan	"Onna Village, Okinawa"	26.44736111		127.8030278			"Whole soft tissues"	1.8																																							2020/6/8	2020/6/8
PRA000101	SAA007142	ST009	157729			SP-9-O_2017	"Saccostrea mordax"	"Small rock oyster"	2017	8	4					Asia	Japan	"Onna Village, Okinawa"	26.438		127.7631667			"Whole soft tissues"	1.9																																							2020/6/8	2020/6/8
PRA000101	SAA007143	ST009	157729			SP-10-O_2017	"Saccostrea mordax"	"Small rock oyster"	2017	8	4					Asia	Japan	"Uruma City, Okinawa"	26.42780556		127.8323333			"Whole soft tissues"	2.5																																							2020/6/8	2020/6/8
PRA000101	SAA007144	ST009	157729			SP-11-O_2017	"Saccostrea mordax"	"Small rock oyster"	2017	8	4					Asia	Japan	"Okinawa City, Okinawa"	26.3235		127.8351111			"Whole soft tissues"	5.1																																							2020/6/8	2020/6/8
PRA000101	SAA007145	ST009	157729			SP-12-O_2017	"Saccostrea mordax"	"Small rock oyster"	2017	8	4					Asia	Japan	"Kadena Town, Okinawa"	26.36238889		127.7468889			"Whole soft tissues"	1.9																																							2020/6/8	2020/6/8
PRA000101	SAA007146	ST009	157729			SP-13-O_2017	"Saccostrea mordax"	"Small rock oyster"	2017	8	4					Asia	Japan	"Chatan Town, Okinawa"	26.32188889		127.755			"Whole soft tissues"	2.1																																							2020/6/8	2020/6/8
PRA000101	SAA007147	ST009	157729			SP-14-O_2017	"Saccostrea mordax"	"Small rock oyster"	2017	8	4					Asia	Japan	"Chatan Town, Okinawa"	26.29711111		127.7576944			"Whole soft tissues"	2.1																																							2020/6/8	2020/6/8
PRA000101	SAA007148	ST009	157729			SP-15-O_2017	"Saccostrea mordax"	"Small rock oyster"	2017	8	4					Asia	Japan	"Urasoe City, Okinawa"	26.27219444		127.7231111			"Whole soft tissues"	1.3																																							2020/6/8	2020/6/8
PRA000101	SAA007149	ST009	157729			SP-16-O_2017	"Saccostrea mordax"	"Small rock oyster"	2017	8	4					Asia	Japan	"Urasoe City, Okinawa"	26.24461111		127.6795			"Whole soft tissues"	1.9																																							2020/6/8	2020/6/8
PRA000101	SAA007150	ST009	157729			SP-17-O_2017	"Saccostrea mordax"	"Small rock oyster"	2017	8	4					Asia	Japan	"Naha City, Okinawa"	26.23080556		127.6803889			"Whole soft tissues"	2.4																																							2020/6/8	2020/6/8
PRA000101	SAA007151	ST009	157729			SP-18-O_2017	"Saccostrea mordax"	"Small rock oyster"	2017	8	4					Asia	Japan	"Naha City, Okinawa"	26.22702778		127.68075			"Whole soft tissues"	1.3																																							2020/6/8	2020/6/8
PRA000101	SAA007152	ST009	157729			SP-19-O_2017	"Saccostrea mordax"	"Small rock oyster"	2017	8	4					Asia	Japan	"Naha City, Okinawa"	26.22719444		127.6808056			"Whole soft tissues"	2.1																																							2020/6/8	2020/6/8
PRA000101	SAA007153	ST009	157729			SP-20-O_2017	"Saccostrea mordax"	"Small rock oyster"	2017	8	4					Asia	Japan	"Naha City, Okinawa"	26.20869444		127.6753889			"Whole soft tissues"	1.8																																							2020/6/8	2020/6/8
PRA000101	SAA007154	ST009	157729			SP-21-O_2017	"Saccostrea mordax"	"Small rock oyster"	2017	8	4					Asia	Japan	"Nanjo City, Okinawa"	26.182		127.7786944			"Whole soft tissues"	2																																							2020/6/8	2020/6/8
PRA000101	SAA007155	ST009	157729			SP-22-O_2017	"Saccostrea mordax"	"Small rock oyster"	2017	8	4					Asia	Japan	"Itoman City, Okinawa"	26.12988889		127.6683056			"Whole soft tissues"	2.2																																							2020/6/8	2020/6/8
PRA000101	SAA007156	ST009	157729			SP-1-O_2018	"Saccostrea mordax"	"Small rock oyster"	2018	5	26					Asia	Japan	"Ginama, Kunigami Village, Okinawa"	26.84938889		128.2525			"Whole soft tissues"	1.2																																							2020/6/8	2020/6/8
PRA000101	SAA007157	ST037				SP-1-B_2018	Plastics	"Expanded polystyrene (EPS) buoy"	2018	5	26					Asia	Japan	"Ginama, Kunigami Village, Okinawa"	26.84938889		128.2525																																										"Collected by cutting from an EPS buoy body floating on the surface of seawater"	2020/6/8	2020/6/8
PRA000101	SAA007158	ST009	157729			SP-4-O_2018	"Saccostrea mordax"	"Small rock oyster"	2018	5	26					Asia	Japan	"Ada, Kunigami Village, Okinawa"	26.74138889		128.3188056			"Whole soft tissues"	1.5																																							2020/6/8	2020/6/8
PRA000101	SAA007159	ST037				SP-4-B_2018	Plastics	"Expanded polystyrene (EPS) buoy"	2018	5	26					Asia	Japan	"Ada, Kunigami Village, Okinawa"	26.74138889		128.3188056																																										"Collected by cutting from an EPS buoy body floating on the surface of seawater"	2020/6/8	2020/6/8
PRA000101	SAA007160	ST009	157729			SP-6-O_2018	"Saccostrea mordax"	"Small rock oyster"	2018	5	26					Asia	Japan	"Teima, Nago City, Okinawa"	26.55133333		128.0637222			"Whole soft tissues"	0.53																																							2020/6/8	2020/6/8
PRA000101	SAA007161	ST037				SP-6-B_2018	Plastics	"Expanded polystyrene (EPS) buoy"	2018	5	26					Asia	Japan	"Nago City, Okinawa"	26.55133333		128.0637222																																										"Collected by cutting from an EPS buoy body floating on the surface of seawater"	2020/6/8	2020/6/8
PRA000101	SAA007162	ST009	157729			SP-7-O_2018	"Saccostrea mordax"	"Small rock oyster"	2018	5	25					Asia	Japan	"Onna Village, Okinawa"	26.50908333		127.8738333			"Whole soft tissues"	1.4																																							2020/6/8	2020/6/8
PRA000101	SAA007163	ST037				SP-7-B_2018	Plastics	"Expanded polystyrene (EPS) buoy"	2018	5	25					Asia	Japan	"Onna Village, Okinawa"	26.50908333		127.8738333																																										"Collected by cutting from an EPS buoy body floating on the surface of seawater"	2020/6/8	2020/6/8
PRA000101	SAA007164	ST009	157729			SP-12-O_2018	"Saccostrea mordax"	"Small rock oyster"	2018	5	25					Asia	Japan	"Kadena Town, Okinawa"	26.36238889		127.7468889			"Whole soft tissues"	1.6																																							2020/6/8	2020/6/8
PRA000101	SAA007165	ST037				SP-12-B_2018	Plastics	"Expanded polystyrene (EPS) buoy"	2018	5	25					Asia	Japan	"Kadena Town, Okinawa"	26.36238889		127.7468889																																										"Collected by cutting from an EPS buoy body floating on the surface of seawater"	2020/6/8	2020/6/8
PRA000101	SAA007166	ST009	157729			SP-22-O_2018	"Saccostrea mordax"	"Small rock oyster"	2018	5	25					Asia	Japan	"Kadena Town, Okinawa"	26.12988889		127.6683056			"Whole soft tissues"	1.2																																							2020/6/8	2020/6/8
PRA000101	SAA007167	ST037				SP-22-B_2018	Plastics	"Expanded polystyrene (EPS) buoy"	2018	5	25					Asia	Japan	"Ginama, Kadena Town, Okinawa"	26.12988889		127.6683056																																										"Collected by cutting from an EPS buoy body floating on the surface of seawater"	2020/6/8	2020/6/8
PRA000101	SAA007168	ST009	157729			SP-2-O_2018	"Saccostrea mordax"	"Small rock oyster"	2018	5	26					Asia	Japan	"Kunigami Village, Okinawa"	26.84980556		128.2533056			"Whole soft tissues"	1.7																																							2020/6/8	2020/6/8
PRA000101	SAA007169	ST009	157729			SP-3-O_2018	"Saccostrea mordax"	"Small rock oyster"	2018	5	26					Asia	Japan	"Hentona, Kunigami Village, Okinawa"	26.74880556		128.1763889			"Whole soft tissues"	0.9																																							2020/6/8	2020/6/8
PRA000101	SAA007170	ST009	157729			SP-1-O_2019	"Saccostrea mordax"	"Small rock oyster"	2019	7	2					Asia	Japan	"Ginama, Kunigami Village, Okinawa"	26.84938889		128.2525			"Whole soft tissues"	2	82																																						2020/6/8	2020/6/8
PRA000101	SAA007171	ST023				SP-1-S_2019	Sediment	"Marine sediment"	2019	7	2					Asia	Japan	"Ginama, Kunigami Village, Okinawa"	26.84938889		128.2525				47																																						"TOC(%): 3; Surface sediment"	2020/6/8	2020/6/8
PRA000101	SAA007172	ST014				SP-1-W_2019	Water	Seawater	2019	7	2					Asia	Japan	"Ginama, Kunigami Village, Okinawa"	26.84938889		128.2525																																											2020/6/8	2020/6/8
PRA000101	SAA007173	ST037				SP-1-P_2019	Plastics	"Polystyrene form debris"	2019	7	2					Asia	Japan	"Ginama, Kunigami Village, Okinawa"	26.84938889		128.2525																																										"Suspected as drifted marine litter; Manually gathered from the surface of seawater"	2020/6/8	2020/6/8
PRA000101	SAA007174	ST009	157729			SP-20-O_2019	"Saccostrea mordax"	"Small rock oyster"	2019	7	3					Asia	Japan	"Naha City, Okinawa"	26.20869444		127.6753889			"Whole soft tissues"	0.62	90																																						2020/6/8	2020/6/8
PRA000101	SAA007175	ST023				SP-20-S_2019	Sediment	"Marine sediment"	2019	7	3					Asia	Japan	"Naha City, Okinawa"	26.20869444		127.6753889				59																																						"TOC(%): 2.8; Surface sediment"	2020/6/8	2020/6/8
PRA000101	SAA007176	ST014				SP-20-W_2019	Water	Seawater	2019	7	3					Asia	Japan	"Naha City, Okinawa"	26.20869444		127.6753889																																											2020/6/8	2020/6/8
PRA000101	SAA007177	ST037				SP-20-P_2019	Plastics	"Polystyrene form debris"	2019	7	3					Asia	Japan	"Naha City, Okinawa"	26.20869444		127.6753889																																										"Suspected as drifted marine litter; Manually gathered from the surface of seawater"	2020/6/8	2020/6/8
PRA000101	SAA007178	ST009	157729			SP-5-O_2019	"Saccostrea mordax"	"Small rock oyster"	2019	7	2					Asia	Japan	"Nago City, Okinawa"	26.58727778		127.9801389			"Whole soft tissues"	1.8	82																																						2020/6/8	2020/6/8
PRA000101	SAA007179	ST037				SP-5-P_2019	Plastics	"Polystyrene form debris"	2019	7	2					Asia	Japan	"Nago City, Okinawa"	26.58727778		127.9801389																																										"Suspected as drifted marine litter; Manually gathered from the surface of seawater"	2020/6/8	2020/6/8
PRA000101	SAA007180	ST009	157729			SP-10-O_2019	"Saccostrea mordax"	"Small rock oyster"	2019	7	2					Asia	Japan	"Uruma City, Okinawa"	26.42780556		127.8323333			"Whole soft tissues"	1.4	86																																						2020/6/8	2020/6/8
PRA000101	SAA007181	ST037				SP-10-P_2019	Plastics	"Polystyrene form debris"	2019	7	2					Asia	Japan	"Uruma City, Okinawa"	26.42780556		127.8323333																																										"Suspected as drifted marine litter; Manually gathered from the surface of seawater"	2020/6/8	2020/6/8
PRA000101	SAA007182	ST009	157729			SP-21-O_2019	"Saccostrea mordax"	"Small rock oyster"	2019	7	1					Asia	Japan	"Nanjo City, Okinawa"	26.182		127.7786944			"Whole soft tissues"	1.6	83																																						2020/6/8	2020/6/8
PRA000101	SAA007183	ST037				SP-21-P_2019	Plastics	"Polystyrene form debris"	2019	7	1					Asia	Japan	"Nanjo City, Okinawa"	26.182		127.7786944																																										"Suspected as drifted marine litter; Manually gathered from the surface of seawater"	2020/6/8	2020/6/8
